Location: Brantley
(31.5822°N, 86.2569°W)
Time: 13:05:02
(UTC+00:00)

Transit 2A Rocket - Pass Details

Date: 24 February 2026
Orbit: 583 x 900 km, 66.7° (Epoch: 11 March)

Event Time Altitude Azimuth Distance (km) Brightness Sun altitude
Rises 06:20:53 0° 324° (NW) 3,234 - -67.2°
Reaches altitude 10° 06:23:33 10° 315° (NW) 2,248 - -67.1°
Maximum altitude 06:28:05 33° 252° (WSW) 1,158 - -66.8°
Drops below altitude 10° 06:32:15 10° 188° (S) 2,057 - -66.5°
Sets 06:34:37 0° 179° (S) 2,919 - -66.3°
